Regional Weather Roundup
Issued by NWS

Home | Current Version | Previous Version | Text Only | Print | Product List | Glossary Off
Versions: 1 2 3 4 5 6 7 8 9 10 11 12 13 14 15 16 17 18 19 20 21 22 23 24 25 26 27 28 29 30 31 32 33 34 35 36 37 38 39 40 41 42 43 44 45 46 47 48 49 50

000
ASUS43 KIND 272159
RWRIN

WEATHER ROUNDUP FOR INDIANA
NATIONAL WEATHER SERVICE INDIANAPOLIS IN
600 PM EDT FRI MAR 27 2015

NOTE: "FAIR" INDICATES FEW OR NO CLOUDS BELOW 12,000 FEET WITH NO
SIGNIFICANT WEATHER AND/OR OBSTRUCTIONS TO VISIBILITY.

* - STATION DOES NOT REPORT WEATHER SUCH AS PRECIPITATION OR FOG.

+ - STATION NOT QUALITY CONTROLLED BY THE NATIONAL WEATHER SERVICE.
    USE DATA WITH CAUTION...ESPECIALLY DEWPOINT AND RELATIVE
    HUMIDITY OBSERVATIONS.

INZ001>003-010>013-019-020-272300-
NORTHWEST INDIANA

CITY           SKY/WX    TMP DP  RH WIND       PRES   REMARKS
GARY /AIRPORT/ MOSUNNY   30   7  37 N20G38    30.17S WCI  18

$$

LMZ046-743>745-272300-
SOUTHERN LAKE MICHIGAN

STATION/POSITION TIME  TEMP WIND        PRES
                       AIR  DIR/SP/G
                 (UTC) (F)  (DEG/KT/KT) (MB)
BURNS HARBOR     2100   25  350/ 19/ 25 1021.3F
MICHIGAN CITY    2100   23  330/ 23/ 28   N/A

$$

INZ004-005-014>016-021>024-272300-
NORTH CENTRAL INDIANA

CITY           SKY/WX    TMP DP  RH WIND       PRES   REMARKS
ELKHART        MOSUNNY   27   3  36 NW12G23   30.09S WCI  16
GOSHEN         MOSUNNY   29  10  45 NW16      30.07R WCI  17
SOUTH BEND     FLURRIES  25  11  55 NW18G28   30.12R WCI  11

$$

INZ006>009-017-018-025>027-272300-
NORTHEAST INDIANA

CITY           SKY/WX    TMP DP  RH WIND       PRES   REMARKS
ANGOLA *+      MOSUNNY   28   3  34 NW13      30.02S WCI  18
FORT WAYNE     PTSUNNY   30   9  41 NW14      30.04S WCI  19

$$

INZ028-029-035-036-043>045-051>053-272300-
WEST CENTRAL INDIANA

CITY           SKY/WX    TMP DP  RH WIND       PRES   REMARKS
CRAWFORDSVL +  PTSUNNY   30   9  41 MISG      30.09F
GREENCASTLE +  CLOUDY    32  14  47 NW14      30.09S WCI  22
LAFAYETTE      FLURRIES  28  16  60 N17G24    30.12S WCI  16
TERRE HAUTE    CLOUDY    33  22  63 NW14      30.11S WCI  23

$$

INZ030>032-037>040-046>048-054>057-064-065-272300-
CENTRAL INDIANA

CITY           SKY/WX    TMP DP  RH WIND       PRES   REMARKS
COLUMBUS       PTSUNNY   32  18  55 N17G23    30.07R WCI  21
GREENWOOD *+   CLOUDY    32  14  47 NW10G18   30.07S WCI  24
INDIANAPOLIS   PTSUNNY   31  14  49 NW16      30.06S WCI  20
-EAGLE CREEK   CLOUDY    31  13  47 N13       30.07S WCI  21
KOKOMO *+        N/A     30  12  47 N16G23    30.07S WCI  19
MT COMFORT *+  MOSUNNY   32   5  32 NW14G23   30.06S WCI  22
SHELBYVILLE    CLOUDY    33  15  47 NW18      30.06R WCI  22

$$

INZ033-034-041-042-049-050-058-059-272300-
EAST CENTRAL INDIANA

CITY           SKY/WX    TMP DP  RH WIND       PRES   REMARKS
MUNCIE         PTSUNNY   30  17  58 NW15      30.04S WCI  19

$$

INZ060-061-067>069-081>083-085>088-272300-
SOUTHWEST INDIANA

CITY           SKY/WX    TMP DP  RH WIND       PRES   REMARKS
EVANSVILLE     CLOUDY    40  20  44 N12G20    30.10S
HUNTINGBURG *+ PTSUNNY   37  21  52 N14       30.08S

$$

INZ062-063-066-070>080-084-089>092-272300-
SOUTH CENTRAL AND SOUTHEAST INDIANA

CITY           SKY/WX    TMP DP  RH WIND       PRES   REMARKS
BLOOMINGTON    CLOUDY    33  21  61 N18       30.06S WCI  22
SEYMOUR +      CLOUDY    36  19  51 N14       30.06S

$$




USA.gov is the U.S. government's official web portal to all federal, state and local government web resources and services.